Ponca City, OK

3:07 PM CDT on June 25, 2017 (GMT -0500)
Ponca City Municipal

Weather History for KPNC - March, 2012

Change the Weather History Date:

Thursday, March 1, 2012

  Actual Average Record
Temperature  
Mean Temperature 58 °F -  
Max Temperature 73 °F 66 °F 82 °F (1972)
Min Temperature 44 °F 37 °F 5 °F (1962)
Degree Days  
Heating Degree Days 6    
Growing Degree Days 8 (Base 50)    
Moisture  
Dew Point 29 °F    
Average Humidity 37    
Maximum Humidity 54    
Minimum Humidity 18    
Precipitation  
Precipitation 0.00 in - - ()
Sea Level Pressure  
Sea Level Pressure 29.63 in    
Wind  
Wind Speed 12 mph (South)    
Max Wind Speed 25 mph    
Max Gust Speed 30 mph    
Visibility 10 miles    
Events      
Averages and records for this station are not official NWS values.
T = Trace of Precipitation, MM = Missing Value Source: NWS Daily Summary

Daily Weather History Graph

Daily Weather History Graph

Search for Another Location

Airport or City:

Trip Planner

Search our weather history database for the weather conditions in past years. The results will help you decide how hot, cold, wet, or windy it might be!

Date:

Astronomy

Mar. 01, 2012 Rise Set
Actual Time 6:58 AM CST 6:23 PM CST
Civil Twilight 6:32 AM CST 6:49 PM CST
Nautical Twilight 6:02 AM CST 7:19 PM CST
Astronomical Twilight 5:32 AM CST 7:49 PM CST
Moon 11:51 AM CST (3/1) 1:51 AM CST (3/1)
Length of Visible Light 12h 16m
Length of Day
11h 24m
First Quarter, 57% of the Moon is Illuminated
Mar 1
First Quarter
Mar 8
Full
Mar 14
Last Quarter
Mar 22
New
Mar 30
First Quarter

Hourly Weather History & Observations

Time (CST) Temp. Windchill Dew Point Humidity Pressure Visibility Wind Dir Wind Speed Gust Speed Precip Events Conditions
12:53 AM 44.1 °F 38.6 °F 27.0 °F 51% 29.86 in 10.0 mi SE 10.4 mph - N/A   Clear
1:53 AM 45.0 °F 39.3 °F 26.1 °F 48% 29.83 in 10.0 mi SE 11.5 mph - N/A   Clear
2:53 AM 46.0 °F 39.9 °F 26.1 °F 46% 29.79 in 10.0 mi SE 13.8 mph - N/A   Clear
3:53 AM 46.0 °F 39.9 °F 25.0 °F 44% 29.76 in 10.0 mi SE 13.8 mph - N/A   Clear
4:53 AM 50.0 °F - 23.0 °F 35% 29.72 in 10.0 mi SSE 25.3 mph 29.9 mph N/A   Clear
5:53 AM 48.9 °F - 25.0 °F 39% 29.72 in 10.0 mi SSE 17.3 mph - N/A   Clear
6:53 AM 50.0 °F - 28.4 °F 43% 29.72 in 10.0 mi SSE 12.7 mph - N/A   Clear
7:53 AM 50.0 °F - 28.4 °F 43% 29.72 in 10.0 mi South 9.2 mph 17.3 mph N/A   Clear
8:53 AM 52.0 °F - 30.9 °F 45% 29.71 in 10.0 mi South 9.2 mph - N/A   Clear
9:53 AM 57.0 °F - 32.0 °F 39% 29.70 in 10.0 mi South 10.4 mph 18.4 mph N/A   Clear
10:53 AM 62.1 °F - 32.0 °F 32% 29.68 in 10.0 mi SSW 12.7 mph 18.4 mph N/A   Clear
11:53 AM 66.9 °F - 32.0 °F 27% 29.65 in 10.0 mi SSW 11.5 mph 19.6 mph N/A   Clear
12:53 PM 68.0 °F - 28.9 °F 23% 29.62 in 10.0 mi WSW 15.0 mph 20.7 mph N/A   Clear
1:53 PM 70.0 °F - 32.0 °F 25% 29.59 in 10.0 mi WSW 13.8 mph 19.6 mph N/A   Clear
2:53 PM 71.6 °F - 30.2 °F 22% 29.57 in 10.0 mi SSW 9.2 mph - N/A   Clear
3:53 PM 73.0 °F - 28.0 °F 19% 29.54 in 10.0 mi SW 8.1 mph - N/A   Clear
4:53 PM 73.4 °F - 26.6 °F 18% 29.54 in 10.0 mi WSW 8.1 mph - N/A   Clear
5:53 PM 70.0 °F - 28.0 °F 21% 29.50 in 10.0 mi SSE 3.5 mph - N/A   Clear
6:53 PM 66.0 °F - 28.9 °F 25% 29.50 in 10.0 mi SSE 5.8 mph - N/A   Clear
7:53 PM 50.0 °F - 33.1 °F 52% 29.51 in 10.0 mi South 3.5 mph - N/A   Clear
8:53 PM 62.1 °F - 28.0 °F 28% 29.48 in 10.0 mi South 4.6 mph - N/A   Clear
9:53 PM 50.0 °F - 34.0 °F 54% 29.46 in 10.0 mi NE 5.8 mph - N/A   Clear
10:53 PM 53.1 °F - 34.0 °F 48% 29.46 in 10.0 mi NNE 12.7 mph - N/A   Clear
11:53 PM 50.0 °F - 34.0 °F 54% 29.47 in 10.0 mi NNE 12.7 mph - N/A   Clear